Location: Clyde
(45.1830°S, 169.3170°E)
Time: 07:58:24
(UTC+12:00)

Cosmos 2315 Rocket - Pass Details

Date: 14 May 2021
Orbit: 965 x 1003 km, 82.9° (Epoch: 20 June)

Event Time Altitude Azimuth Distance (km) Brightness Sun altitude
Rises 20:22:59 0° 190° (S) 3,713 7.2 -31.3°
Reaches altitude 10° 20:25:31 10° 190° (S) 2,763 6.5 -31.8°
Enters shadow 20:30:14 53° 199° (SSW) 1,213 4.5 -32.6°
